Weather History for PACD - October, 2012

Change the Weather History Date:

Wednesday, October 24, 2012

  Actual Average Record
Temperature  
Mean Temperature 35 °F 38 °F  
Max Temperature 45 °F 43 °F 52 °F (1980)
Min Temperature 25 °F 34 °F 21 °F (1999)
Degree Days  
Heating Degree Days 30 27  
Month to date heating degree days 541 570  
Since 1 July heating degree days 2058 1921  
Cooling Degree Days 0    
Month to date cooling degree days 0  
Year to date cooling degree days 0  
Moisture  
Dew Point 27 °F    
Average Humidity 72    
Maximum Humidity 88    
Minimum Humidity 51    
Precipitation  
Precipitation 0.00 in 0.15 in 1.53 in (2000)
Month to date precipitation 4.61 3.72  
Year to date precipitation 35.77 31.19  
Snow  
Snow 0.00 in 0.10 in 1.40 in (2009)
Month to date snowfall 0.6 1.4  
Since 1 July snowfall 0.6 1.4  
Since 1 September snowfall 0.6 1.4  
Snow Depth 0.00 in    
Sea Level Pressure  
Sea Level Pressure 30.18 in    
Wind  
Wind Speed 5 mph (NE)    
Max Wind Speed 12 mph    
Max Gust Speed 16 mph    
Visibility 10 miles    
Events      
T = Trace of Precipitation, MM = Missing Value Source: NWS Daily Summary

Daily Weather History Graph

Daily Weather History Graph

Search for Another Location

Airport or City:

Trip Planner

Search our weather history database for the weather conditions in past years. The results will help you decide how hot, cold, wet, or windy it might be!

Date:

Astronomy

Oct. 24, 2012 Rise Set
Actual Time 9:40 AM AKDT 7:28 PM AKDT
Civil Twilight 9:02 AM AKDT 8:06 PM AKDT
Nautical Twilight 8:20 AM AKDT 8:48 PM AKDT
Astronomical Twilight 7:37 AM AKDT 9:30 PM AKDT
Moon 5:29 PM AKDT (10/24) 4:03 AM AKDT (10/24)
Length of Visible Light 11h 03m
Length of Day
9h 48m
Waxing Gibbous, 77% of the Moon is Illuminated
Oct 24
Waxing Gibbous
Oct 29
Full
Nov 6
Last Quarter
Nov 13
New
Nov 20
First Quarter

Hourly Weather History & Observations

Time (AKDT) Temp. Windchill Dew Point Humidity Pressure Visibility Wind Dir Wind Speed Gust Speed Precip Events Conditions
12:53 AM 30.9 °F 23.5 °F 26.1 °F 82% 30.15 in 10.0 mi NE 8.1 mph - N/A   Clear
1:53 AM 26.1 °F 21.9 °F 21.9 °F 84% 30.16 in 10.0 mi NE 3.5 mph - N/A   Clear
2:53 AM 32.0 °F 25.6 °F 26.1 °F 79% 30.17 in 10.0 mi NNE 6.9 mph - N/A   Clear
3:53 AM 33.1 °F 27.7 °F 26.1 °F 75% 30.17 in 10.0 mi North 5.8 mph - N/A   Clear
4:53 AM 30.9 °F - 25.0 °F 79% 30.18 in 10.0 mi Calm Calm - N/A   Clear
5:53 AM 27.0 °F 20.5 °F 23.0 °F 85% 30.17 in 10.0 mi SSW 5.8 mph - N/A   Clear
6:53 AM 27.0 °F - 23.0 °F 85% 30.17 in 10.0 mi Calm Calm - N/A   Clear
7:53 AM 26.1 °F - 23.0 °F 88% 30.17 in 10.0 mi Calm Calm - N/A   Clear
8:53 AM 30.0 °F 23.2 °F 23.0 °F 75% 30.17 in 10.0 mi NNE 6.9 mph - N/A   Clear
9:53 AM 27.0 °F - 21.0 °F 78% 30.18 in 10.0 mi Calm Calm - N/A   Partly Cloudy
10:53 AM 34.0 °F 27.2 °F 27.0 °F 75% 30.18 in 10.0 mi NNE 8.1 mph - N/A   Partly Cloudy
11:53 AM 37.0 °F 34.5 °F 28.0 °F 70% 30.19 in 10.0 mi NNE 3.5 mph - N/A   Partly Cloudy
12:53 PM 41.0 °F 39.0 °F 30.0 °F 65% 30.18 in 10.0 mi NNE 3.5 mph - N/A   Partly Cloudy
1:53 PM 41.0 °F 39.0 °F 30.0 °F 65% 30.18 in 10.0 mi NE 3.5 mph - N/A   Partly Cloudy
2:53 PM 45.0 °F - 28.9 °F 53% 30.19 in 10.0 mi Calm Calm - N/A   Scattered Clouds
3:53 PM 41.0 °F 35.8 °F 28.9 °F 62% 30.17 in 10.0 mi NE 8.1 mph - N/A   Mostly Cloudy
4:53 PM 41.0 °F 39.0 °F 28.0 °F 60% 30.16 in 10.0 mi NNE 3.5 mph - N/A   Scattered Clouds
5:53 PM 42.1 °F 40.2 °F 28.0 °F 58% 30.16 in 10.0 mi ENE 3.5 mph - N/A   Overcast
6:53 PM 39.0 °F 33.4 °F 30.0 °F 70% 30.17 in 10.0 mi NNE 8.1 mph - N/A   Overcast
7:53 PM 37.0 °F 31.0 °F 28.9 °F 73% 30.18 in 10.0 mi NNE 8.1 mph - N/A   Overcast
8:53 PM 37.0 °F 31.6 °F 28.9 °F 73% 30.19 in 10.0 mi NNE 6.9 mph - N/A   Overcast
9:53 PM 39.0 °F 32.8 °F 30.9 °F 73% 30.19 in 10.0 mi East 9.2 mph - N/A   Overcast
10:53 PM 36.0 °F 30.3 °F 28.9 °F 76% 30.20 in 10.0 mi NNE 6.9 mph - N/A   Mostly Cloudy
11:53 PM 37.9 °F 33.5 °F 28.9 °F 70% 30.21 in 10.0 mi NE 5.8 mph - N/A   Overcast